www.pogodaiklimat.ru

Погода и климат >> Архив погоды >> Мексика >> Оризаба


ПОГОДА в Оризабе

  • Прогноз погоды в Оризабе
  • Монитор погоды в Оризабе

АРХИВ ПОГОДЫ в Оризабе

Время (UTC), дата Ветер
(напр.,м/с)
 
Видим.   Явления Облачность Т
(С)
Тd
(С)
f
(%)
Тe
(С)
Тes
(С)
Комфортность P
(гПа)
Po
(гПа)
Тmin
(С)
Tmax
(С)
R
(мм)
R24
(мм)
S
(см)
18 19.05 В 3
{9}
30 км ясно +30.6 +16.4 42 +34 +52 опасность
солнечного
удара
1007.1 874.2 +21.8 +30.7
21 19.05 Ю 3
{7}
30 км 1/1 700 м
[Cu hum]
+33.4 +14.0 31 +35 +46 душно 1004.4 872.8
00 20.05 Ю 2
{5}
30 км 4/1 700 м
[Cb calv As op]
+30.1 +16.1 43 +33 +34 душно 1003.5 872.8 +21.8 +33.5
03 20.05 штиль 0 25 км мгла 1/0 2000 м
[Ac trans]
+25.3 +20.8 76 +32 +32 очень
душно
1006.4 875.4
09 20.05 штиль 0 28 км мгла ясно +20.4 +15.6 74 +23 +23 комфорт 1008.5 875.2
12 20.05 штиль 0 28 км мгла 4/0 2000 м
[Ac trans]
+20.8 +15.8 73 +24 +24 комфорт 1009.9 875.3 +19.7 +33.5
15 20.05 ЮВ 1
{2}
28 км мгла ясно +26.9 +17.8 57 +31 +42 душно 1010.8 875.8
18 20.05 В 3
{5}
28 км мгла 1/1 700 м
[Cu hum]
+30.4 +13.9 37 +32 +49 жарко 1010.3 875.7 +19.7 +30.4
21 20.05 Ю 3
{7}
28 км мгла 1/1 700 м
[Cu med, cong]
+31.8 +11.9 30 +32 +43 жарко 1006.3 873.6
00 21.05 В 1
{4}
28 км мгла 1/1 700 м
[Cu hum]
+29.8 +11.9 33 +30 +32 жарко 1004.2 872.8 +19.7 +32.0
03 21.05 штиль 0
{6}
28 км мгла ясно +23.9 +14.6 56 +27 +27 жарко 1005.4 874.2
06 21.05 ЮЗ 1
{6}
25 км мгла 4/0 2000 м
[Ac trans]
+21.2 +14.7 66 +24 +24 комфорт 1007.4 875.1 +19.7 +32.0
09 21.05 ЮЗ 2 25 км мгла ясно +21.2 +14.6 66 +24 +24 комфорт 1005.6 872.5
12 21.05 З 2
{5}
30 км ясно +19.7 +12.3 62 +22 +22 комфорт 1005.4 871.4 +19.7 +32.0
15 21.05 ЮЗ 2
{5}
28 км мгла ясно +27.8 +14.1 43 +30 +40 жарко 1005.8 871.5
18 21.05 В 1
{5}
28 км мгла ясно +30.2 +16.6 44 +34 +59 опасность
солнечного
удара
1004.9 871.3 +19.7 +30.7
21 21.05 В 2
{5}
28 км 6/1 700 м
[Cb calv As op]
+29.5 +17.6 49 +34 +41 очень
душно
1002.5 870.6
00 22.05 В 2
{4}
28 км 9/0 2000 м
[As op]
+27.0 +18.7 60 +32 +32 очень
душно
1002.1 870.8 +19.7 +32.0
03 22.05 З 1
{6}
20 км мгла 3/0 2000 м
[Ac trans]
+23.7 +18.1 71 +28 +28 душно 1003.1 871.7
06 22.05 З 1
{6}
20 км мгла 4/0 2000 м
[Ac trans]
+23.0 +17.4 71 +28 +28 душно 1005.3 872.9 +19.7 +32.0
09 22.05 З 2
{3}
20 км мгла ясно +19.6 +15.3 76 +22 +22 комфорт 1005.3 871.8
12 22.05 З 2
{4}
28 км мгла 3/0 2000 м
[Ac trans]
+19.0 +13.6 71 +21 +21 комфорт 1006.3 871.8 +19.0 +32.0
15 22.05 Ю 1
{3}
28 км мгла 6/0
[Cs]
+27.0 +15.4 49 +30 +40 душно 1007.3 872.5
18 22.05 В 3
{5}
25 км мгла 1/1 700 м
[Cu hum]
+30.4 +19.6 52 +36 +53 опасность
солнечного
удара
1007.6 873.3 +19.0 +30.6
21 22.05 В 3
{7}
25 км мгла 4/4 700 м
[Cu med, cong]
+31.2 +21.0 55 +39 +46 очень
душно
1004.8 872.2
00 23.05 В 4
{8}
28 км мгла 8/5 500 м
[Cu med, cong Cs]
+28.2 +20.2 62 +35 +35 очень
душно
1003.5 872.1 +19.0 +31.3
03 23.05 В 1
{6}
25 км мгла 8/8 500 м
[St]
+24.3 +21.0 82 +31 +31 очень
душно
1006.0 874.5
06 23.05 В 1 25 км мгла 8/3 500 м
[St Ac trans]
+22.8 +21.2 91 +30 +30 очень
душно
1008.6 876.0 +31.3
09 23.05 штиль 0
{1}
20 км мгла 9/1 400 м
[St Ac und]
+21.9 +19.7 87 +27 +27 душно 1008.4 875.0
12 23.05 штиль 0
{1}
20 км мгла 6/5 500 м
[Sc diur, vesp Ac trans]
+20.7 +18.0 85 +24 +24 комфорт 1009.6 875.1 +20.7 +31.3
15 23.05 В 2
{3}
28 км мгла 1/1 700 м
[Cu hum]
+26.2 +18.6 63 +31 +40 очень
душно
1011.0 876.3
18 23.05 В 3
{6}
28 км мгла 6/6 700 м
[Cu med, cong]
+27.2 +18.8 60 +32 +40 очень
душно
1010.8 876.3 +20.7 +28.3
21 23.05 В 4
{9}
25 км мгла 6/6 700 м
[Cu med, cong]
+28.8 +18.9 55 +34 +38 очень
душно
1007.5 874.3
00 24.05 В 4
{9}
25 км в посл. час гроза 9/0
[Ac inh]
+21.6 +19.1 86 +27 +27 душно 1008.5 875.5 +29.0 1
03 24.05 СВ 2
{6}
25 км мгла 8/0 2000 м
[Ac und]
+21.3 +17.4 78 +25 +25 комфорт 1010.1 876.6
06 24.05 СВ 1 25 км мгла 8/0
[Ac und]
+19.5 +14.6 73 +22 +22 комфорт 1012.1 877.7 +29.0
09 24.05 С 1 25 км мгла ясно +17.6 +12.9 74 +19 +19 1011.9 876.4
12 24.05 С 1
{2}
25 км мгла {гроза} 5/0 2000 м
[Ac cuf Ci]
+15.9 +12.2 79 +17 +17 1013.4 876.9 +15.9 +29.0
15 24.05 В 2
{4}
28 км мгла 1/1 700 м
[Cu hum]
+23.5 +14.7 58 +26 +35 жарко 1015.3 878.4
18 24.05 В 2
{4}
28 км мгла 4/3 700 м
[Cu med, cong Ac trans]
+28.0 +16.6 50 +32 +46 душно 1014.4 878.0 +15.9 +28.2
00 25.05 В 3
{8}
20 км слаб. морось 9/6 500 м
[Frnb]
+23.6 +18.6 74 +28 +28 душно 1010.1 876.4 +15.9 +28.6 0.0
03 25.05 штиль 0 28 км мгла 3/0 2000 м
[Ac trans]
+20.9 +18.2 85 +25 +25 комфорт 1011.8 878.0 0.0
06 25.05 штиль 0 28 км мгла ясно +17.8 +14.1 79 +18 +18 1012.7 878.0 +15.9 +28.6 0.0
09 25.05 штиль 0 30 км ясно +16.0 +12.3 79 +16 +16 1013.6 877.5
12 25.05 штиль 0 30 км мгла ясно +15.2 +12.8 86 +15 +15 1014.6 877.4 +15.2 +28.6
15 25.05 В 2
{4}
30 км 1/0
[Ci fib]
+22.0 +14.3 62 +25 +35 комфорт 1016.8 879.0
18 25.05 В 3
{6}
30 км 3/0
[Ci fib]
+27.8 +15.3 46 +30 +48 жарко 1014.8 878.2 +15.2 +28.0
21 25.05 ЮВ 3
{6}
30 км 5/5 700 м
[Cu med, cong]
+27.8 +15.5 47 +31 +37 душно 1011.6 876.6
00 26.05 Ю 3
{6}
30 км 8/8 600 м
[St]
+25.0 +18.3 66 +29 +30 душно 1010.3 876.6 +15.2 +28.8
03 26.05 штиль 0 25 км мгла 10/10 500 м
[St]
+21.7 +17.8 78 +26 +26 душно 1012.9 879.2
06 26.05 штиль 0 25 км мгла 5/5 400 м
[St]
+20.3 +18.3 88 +24 +24 комфорт 1013.9 879.5 +28.8
09 26.05 штиль 0 25 км мгла 9/0 2000 м
[]
+19.8 +16.4 81 +22 +22 комфорт 1013.5 878.2
12 26.05 штиль 0 28 км мгла 4/0 2000 м
[Ac trans]
+18.3 +15.0 81 +19 +19 1014.4 878.2 +18.3 +28.8
15 26.05 В 2
{5}
28 км мгла 3/3 600 м
[Cu med, cong]
+20.8 +17.2 80 +25 +32 комфорт 1015.9 879.2

 

Местоположение метеостанции Оризаба (Мексика): широта 18.85 долгота -97.10 высота над уровнем моря 1259 м.

В архиве по умолчанию представлена погода в Оризабе за последнюю неделю. Архивные данные за месяц целиком и за предыдущие месяцы, начиная с января 2011 года, Вы можете получить, выбрав интересующий диапазон дат из раскрывающегося списка и нажав кнопку "Ввод!".


*Определитесь, кто Вы:
робот инопланетянин человек

Внимание! Время в таблицах - всемирное. Для получения местного времени необходимо прибавить поправку, которая равна -6 ч.

Смотрите также архив погоды в соседних городах и на ближайших метеорологических станциях:

Погода в Кордове (Мексика) (19 км)
Погода в Халапе (Мексика) (80 км)
Погода в Веракрусе (Мексика) (109 км)
Погода в Пуэбле (Мексика) (114 км)
Погода в Тлашкала аэропорту (Мексика) (130 км)
Погода в Тлашкале (Мексика) (132 км)
Погода в Уахуапан-де-Леоне (Мексика) (137 км)
Погода в Тулансинго (Мексика) (191 км)
Погода в Оахаке (Мексика) (204 км)
Погода в Сакатепеке (Мексика) (219 км)

Пояснения к столбцам:

Ветер - указаны скорость ветра в м/с - средняя за 10 мин, порывы в срок и между сроками (в фигурных скобках) и направление, откуда дует ветер: С - северный, СВ - северо-восточный, В - восточный, ЮВ - юго-восточный, Ю - южный, ЮЗ - юго-западный, З - западный, СЗ - северо-западный.
Видимость - горизонтальная дальность видимости в метрах или километрах. При видимости от 1 до 10 км при отсутствии осадков обычно наблюдается дымка, при ухудшении видимости до 1 км и менее - туман. В сухую погоду видимость может ухудшаться дымом, пылью или мглою.
Явления - указаны атмосферные явления, наблюдавшиеся в срок или в последний час перед сроком; фигурными скобками обозначены явления, наблюдавшиеся между сроками (за 1-3 часа до срока); квадратными скобками обозначены град или гололедные отложения с указанием их диаметра в мм.
Облачность - указаны через наклонную черту общая и нижняя облачность в баллах и высота нижней границы облаков в метрах; квадратными скобками обозначены формы облаков: Ci - перистые, Cs - перисто-слоистые, Cc - перисто-кучевые, Ac - высококучевые, As - высокослоистые, Sc - слоисто-кучевые, Ns - слоисто-дождевые, Cu - кучевые, Cb - кучево-дождевые. Подробнее классификацию облаков см. в Атласе облаков (PDF).
T - Температура воздуха - температура, измеренная на высоте 2 м над землей.
Td - Температура точки росы - температура, при понижении до которой содержащийся в воздухе водяной пар достигнет насыщения.
f - Относительная влажность воздуха - влажноcть воздуха, измеренная на высоте 2 м над землей.
Te - Эффективная температура - температура, которую ощущает одетый по сезону человек в тени. Характеристика душности погоды. При расчете учитывается влияние влажности воздуха и скорости ветра на теплоощущения человека.
Tes - Эффективная температура на солнце - температура, которую ощущает человек, с поправкой на солнечный нагрев. Характеристика знойности погоды. Зависит от высоты солнца над горизонтом, облачности и скорости ветра. Ночью, в пасмурную погоду, а также при ветре 12 м/с и более поправка равна нулю.
P - Атмосферное давление - приведенное к уровню моря атмосферное давление.
Po - Атмосферное давление - измеренное на уровне метеостанции атмосферное давление.
Tmin - Минимальная температура - минимум температуры воздуха на высоте 2 м над землей.
Tmax - Максимальная температура - максимум температуры воздуха на высоте 2 м над землей.
R - Количество осадков - Количество выпавших осадков за период времени, мм. При наведении курсора мыши на число - период времени, за который выпало указанное количество осадков.
R24 - Количество осадков - Количество выпавших осадков за 24 часа, мм.
S - Снежный покров - Высота снежного покрова, см. При наведении курсора мыши на число - состояние снежного покрова и степень покрытия местности в баллах.